Cheboygan, MI

10:36 AM EDT on May 30, 2017 (GMT -0400)
Cheboygan

Weather History for KSLH - December, 2012

Change the Weather History Date:

Saturday, December 22, 2012

  Actual Average (KMCD) Record (KMCD)
Temperature  
Mean Temperature 26 °F -  
Max Temperature 28 °F 27 °F 41 °F (2007)
Min Temperature 23 °F 18 °F 5 °F (1983)
Degree Days  
Heating Degree Days 40    
Moisture  
Dew Point 22 °F    
Average Humidity 84    
Maximum Humidity 99    
Minimum Humidity 77    
Precipitation  
Precipitation 0.00 in - - ()
Sea Level Pressure  
Sea Level Pressure 29.93 in    
Wind  
Wind Speed 13 mph (WNW)    
Max Wind Speed 23 mph    
Max Gust Speed 31 mph    
Visibility 10 miles    
Events      
Averages and records for this station are not official NWS values.
T = Trace of Precipitation, MM = Missing Value Source: NWS Daily Summary

Daily Weather History Graph

Daily Weather History Graph

Search for Another Location

Airport or City:

Trip Planner

Search our weather history database for the weather conditions in past years. The results will help you decide how hot, cold, wet, or windy it might be!

Date:

Astronomy

Dec. 22, 2012 Rise Set
Actual Time 8:16 AM EST 4:57 PM EST
Civil Twilight 7:42 AM EST 5:31 PM EST
Nautical Twilight 7:04 AM EST 6:09 PM EST
Astronomical Twilight 6:28 AM EST 6:45 PM EST
Moon 1:23 PM EST (12/22) 2:51 AM EST (12/22)
Length of Visible Light 9h 49m
Length of Day
8h 41m
Waxing Gibbous, 73% of the Moon is Illuminated
Dec 22
Waxing Gibbous
Dec 28
Full
Jan 4
Last Quarter
Jan 11
New
Jan 18
First Quarter

Hourly Weather History & Observations

Time (EST) Temp. Windchill Dew Point Humidity Pressure Visibility Wind Dir Wind Speed Gust Speed Precip Events Conditions
12:15 AM 26.2 °F 15.2 °F 20.1 °F 78% 29.90 in 10.0 mi NW 12.7 mph 26.5 mph N/A   Overcast
12:35 AM 26.2 °F 14.2 °F 20.8 °F 80% 29.91 in 10.0 mi WNW 15.0 mph 21.9 mph N/A   Overcast
12:55 AM 25.7 °F 11.9 °F 19.8 °F 78% 29.92 in 10.0 mi WNW 19.6 mph 25.3 mph N/A   Overcast
1:16 AM 25.7 °F 10.8 °F 19.4 °F 77% 29.92 in 10.0 mi NW 23.0 mph 29.9 mph N/A   Overcast
1:35 AM 25.7 °F 12.7 °F 19.9 °F 79% 29.91 in 10.0 mi NNW 17.3 mph 25.3 mph N/A   Overcast
1:55 AM 25.7 °F 12.7 °F 20.1 °F 79% 29.92 in 10.0 mi WNW 17.3 mph 20.7 mph N/A   Overcast
2:15 AM 25.3 °F 12.2 °F 19.8 °F 79% 29.92 in 10.0 mi NW 17.3 mph 25.3 mph N/A   Overcast
2:35 AM 25.2 °F 13.3 °F 19.2 °F 78% 29.93 in 10.0 mi WNW 13.8 mph 24.2 mph N/A   Overcast
2:55 AM 24.8 °F 12.4 °F 18.5 °F 77% 29.93 in 10.0 mi NW 15.0 mph 26.5 mph N/A   Overcast
3:15 AM 24.8 °F 12.4 °F 19.0 °F 79% 29.93 in 10.0 mi NW 15.0 mph 27.6 mph N/A   Overcast
3:35 AM 24.8 °F 12.4 °F 19.2 °F 79% - 10.0 mi WNW 15.0 mph - N/A   Overcast
3:55 AM 23.9 °F 9.5 °F 18.1 °F 79% 29.94 in 10.0 mi NW 19.6 mph 28.8 mph N/A   Overcast
4:15 AM 24.4 °F 11.0 °F 19.2 °F 81% 29.95 in 10.0 mi NW 17.3 mph 25.3 mph N/A   Overcast
4:35 AM 24.3 °F 10.8 °F 19.4 °F 82% 29.95 in 10.0 mi WNW 17.3 mph 23.0 mph N/A   Overcast
4:55 AM 24.4 °F 9.9 °F 19.6 °F 82% 29.95 in 7.0 mi NW 20.7 mph 31.1 mph N/A   Overcast
5:15 AM 24.6 °F 10.5 °F 19.9 °F 82% 29.96 in 10.0 mi WNW 19.6 mph 26.5 mph N/A   Overcast
5:35 AM 24.8 °F 10.7 °F 20.1 °F 82% 29.96 in 10.0 mi NW 19.6 mph 28.8 mph N/A   Overcast
5:55 AM 25.2 °F 14.4 °F 21.0 °F 84% 29.96 in 10.0 mi NW 11.5 mph - N/A   Overcast
6:15 AM 25.2 °F 12.4 °F 21.2 °F 85% 29.96 in 10.0 mi WNW 16.1 mph 20.7 mph N/A   Overcast
6:36 AM 25.2 °F 11.2 °F 20.7 °F 83% 29.97 in 10.0 mi WNW 19.6 mph 26.5 mph N/A   Overcast
6:55 AM 25.2 °F 11.2 °F 20.3 °F 82% 29.97 in 10.0 mi WNW 19.6 mph 25.3 mph N/A   Overcast
7:15 AM 25.2 °F 12.9 °F 20.7 °F 83% 29.98 in 10.0 mi WNW 15.0 mph 20.7 mph N/A   Overcast
7:35 AM 25.2 °F 12.4 °F 21.0 °F 84% 29.98 in 10.0 mi WNW 16.1 mph 19.6 mph N/A   Overcast
7:55 AM 25.3 °F 13.6 °F 21.0 °F 84% 29.98 in 10.0 mi NW 13.8 mph 20.7 mph N/A   Overcast
8:16 AM 25.3 °F 13.6 °F 21.2 °F 84% 29.98 in 10.0 mi WNW 13.8 mph 20.7 mph N/A   Overcast
8:35 AM 25.5 °F 12.9 °F 21.2 °F 84% 29.98 in 10.0 mi NW 16.1 mph 21.9 mph N/A   Overcast
8:55 AM 25.5 °F 12.9 °F 21.2 °F 84% 29.98 in 10.0 mi WNW 16.1 mph 21.9 mph N/A   Overcast
9:15 AM 25.7 °F 14.6 °F 20.8 °F 82% 29.98 in 10.0 mi NW 12.7 mph 20.7 mph N/A   Overcast
9:35 AM 25.7 °F 15.7 °F 21.6 °F 84% 29.98 in 10.0 mi NW 10.4 mph - N/A   Overcast
9:56 AM 25.9 °F 14.8 °F 21.7 °F 84% 29.99 in 10.0 mi WNW 12.7 mph - N/A   Overcast
10:15 AM 26.2 °F 14.7 °F 21.4 °F 82% 29.99 in 10.0 mi NW 13.8 mph 19.6 mph N/A   Overcast
10:35 AM 26.6 °F 16.8 °F 21.6 °F 81% 29.98 in 10.0 mi WNW 10.4 mph - N/A   Overcast
10:55 AM 27.1 °F 18.2 °F 21.6 °F 80% 29.98 in 10.0 mi WNW 9.2 mph 16.1 mph N/A   Overcast
11:15 AM 27.5 °F 17.4 °F 21.7 °F 79% 29.97 in 10.0 mi WNW 11.5 mph 16.1 mph N/A   Mostly Cloudy
11:35 AM 28.0 °F 18.6 °F 22.6 °F 80% 29.97 in 10.0 mi WNW 10.4 mph - N/A   Overcast
11:55 AM 28.2 °F 16.3 °F 22.3 °F 78% 29.96 in 10.0 mi WNW 16.1 mph 19.6 mph N/A   Overcast
12:15 PM 28.4 °F 16.6 °F 22.3 °F 78% 29.96 in 10.0 mi WNW 16.1 mph 20.7 mph N/A   Overcast
12:36 PM 28.4 °F 18.0 °F 22.5 °F 78% 29.95 in 10.0 mi West 12.7 mph 21.9 mph N/A   Overcast
12:55 PM 28.2 °F 16.3 °F 21.9 °F 77% 29.95 in 10.0 mi WNW 16.1 mph 23.0 mph N/A   Overcast
1:15 PM 28.2 °F 18.3 °F 22.6 °F 80% 29.95 in 10.0 mi WNW 11.5 mph 16.1 mph N/A   Overcast
1:35 PM 28.4 °F 18.5 °F 22.8 °F 80% 29.94 in 10.0 mi West 11.5 mph - N/A   Overcast
1:55 PM 28.4 °F 18.0 °F 23.0 °F 80% 29.93 in 10.0 mi West 12.7 mph - N/A   Overcast
2:15 PM 28.2 °F 18.3 °F 22.6 °F 80% 29.93 in 10.0 mi West 11.5 mph - N/A   Overcast
2:35 PM 28.6 °F 18.7 °F 23.2 °F 80% 29.93 in 10.0 mi West 11.5 mph 16.1 mph N/A   Overcast
2:55 PM 28.4 °F 18.0 °F 23.0 °F 80% 29.93 in 10.0 mi West 12.7 mph - N/A   Overcast
3:16 PM 28.4 °F 19.1 °F 23.0 °F 80% 29.93 in 10.0 mi West 10.4 mph - N/A   Overcast
3:35 PM 28.4 °F 22.2 °F 22.8 °F 80% 29.93 in 10.0 mi West 5.8 mph - N/A   Overcast
3:55 PM 28.2 °F 19.5 °F 22.8 °F 80% 29.93 in 10.0 mi West 9.2 mph - N/A   Overcast
4:16 PM 28.0 °F 22.8 °F 23.0 °F 81% 29.93 in 10.0 mi West 4.6 mph - N/A   Overcast
4:35 PM 27.9 °F 20.6 °F 23.0 °F 82% 29.92 in 10.0 mi WSW 6.9 mph - N/A   Overcast
4:55 PM 27.9 °F 22.6 °F 23.2 °F 83% 29.92 in 10.0 mi West 4.6 mph - N/A   Overcast
5:15 PM 27.5 °F 22.2 °F 23.7 °F 86% 29.92 in 10.0 mi WSW 4.6 mph - N/A   Overcast
5:35 PM 27.0 °F - 23.9 °F 88% 29.93 in 10.0 mi Calm Calm - N/A   Overcast
5:55 PM 27.0 °F - 23.7 °F 88% 29.93 in 10.0 mi Calm Calm - N/A   Overcast
6:16 PM 26.2 °F 22.1 °F 23.5 °F 90% 29.92 in 10.0 mi SSW 3.5 mph - N/A   Mostly Cloudy
6:35 PM 25.5 °F - 23.4 °F 92% 29.92 in 10.0 mi Calm Calm - N/A   Mostly Cloudy
6:55 PM 25.7 °F - 23.9 °F 93% 29.92 in 10.0 mi Calm Calm - N/A   Overcast
7:15 PM 25.3 °F 21.1 °F 23.7 °F 94% 29.91 in 10.0 mi SSW 3.5 mph - N/A   Overcast
7:35 PM 25.5 °F - 23.4 °F 92% 29.91 in 10.0 mi Calm Calm - N/A   Scattered Clouds
7:55 PM 23.9 °F - 22.8 °F 96% 29.91 in 10.0 mi Calm Calm - N/A   Scattered Clouds
8:15 PM 23.9 °F - 23.5 °F 99% 29.90 in 10.0 mi Calm Calm - N/A   Mostly Cloudy
8:35 PM 23.7 °F - 23.0 °F 97% 29.90 in 10.0 mi Calm Calm - N/A   Overcast
8:55 PM 23.5 °F - 22.6 °F 96% 29.88 in 10.0 mi Calm Calm - N/A   Overcast
9:15 PM 25.5 °F 19.9 °F 23.7 °F 93% 29.88 in 10.0 mi SSW 4.6 mph - N/A   Mostly Cloudy
9:35 PM 25.0 °F 19.3 °F 23.5 °F 94% 29.87 in 10.0 mi SSW 4.6 mph - N/A   Mostly Cloudy
9:55 PM 25.3 °F 19.7 °F 23.9 °F 94% 29.86 in 10.0 mi SSW 4.6 mph - N/A   Overcast
10:15 PM 25.5 °F 19.9 °F 24.3 °F 95% 29.85 in 10.0 mi SSW 4.6 mph - N/A   Overcast
10:36 PM 25.5 °F 19.9 °F 24.1 °F 94% 29.84 in 10.0 mi SSW 4.6 mph - N/A   Scattered Clouds
10:55 PM 24.8 °F 17.9 °F 23.9 °F 96% 29.83 in 10.0 mi SSW 5.8 mph - N/A   Scattered Clouds
11:15 PM 24.8 °F 19.1 °F 23.7 °F 96% 29.83 in 10.0 mi SSW 4.6 mph - N/A   Scattered Clouds
11:36 PM 23.5 °F 17.6 °F 22.5 °F 96% 29.82 in 10.0 mi SW 4.6 mph - N/A   Scattered Clouds
11:55 PM 23.9 °F 18.0 °F 23.0 °F 96% 29.82 in 10.0 mi SW 4.6 mph - N/A   Clear